Time,TemperatureF,DewpointF,PressureIn,WindDirection,WindDirectionDegrees,WindSpeedMPH,WindSpeedGustMPH,Humidity,HourlyPrecipIn,Conditions,Clouds,dailyrainin,SoftwareType,DateUTC
2013-05-20 00:01:00,64.7,59.4,29.98,SSE,163,4.0,4.0,83,0.00,RA,,0.00,WeatherDisplay:10.37,2013-05-20 04:01:00,
2013-05-20 00:02:00,64.7,59.4,29.98,SSE,167,1.2,1.2,83,0.00,RA,,0.00,WeatherDisplay:10.37,2013-05-20 04:02:00,
2013-05-20 00:07:00,64.5,59.2,29.98,East,99,1.2,1.2,83,0.00,RA,,0.00,WeatherDisplay:10.37,2013-05-20 04:07:00,
2013-05-20 00:12:00,64.5,59.2,29.98,SE,143,3.5,3.5,83,0.00,CLR,,0.00,WeatherDisplay:10.37,2013-05-20 04:12:00,
2013-05-20 00:17:00,64.5,59.2,29.98,South,180,4.6,4.6,83,0.00,CLR,,0.00,WeatherDisplay:10.37,2013-05-20 04:17:00,
2013-05-20 00:22:00,64.4,59.1,29.97,SSE,157,4.0,4.0,83,0.00,CLR,,0.00,WeatherDisplay:10.37,2013-05-20 04:22:00,
2013-05-20 00:27:00,64.3,59.0,29.97,SSW,192,5.0,5.0,83,0.00,CLR,,0.00,WeatherDisplay:10.37,2013-05-20 04:27:00,
2013-05-20 00:32:00,64.3,58.7,29.97,South,180,4.0,4.0,82,0.00,CLR,,0.00,WeatherDisplay:10.37,2013-05-20 04:32:00,
2013-05-20 00:37:00,64.3,58.7,29.97,SSW,192,6.0,6.0,82,0.00,CLR,,0.00,WeatherDisplay:10.37,2013-05-20 04:37:00,
2013-05-20 00:42:00,64.3,58.7,29.97,South,172,7.0,7.0,82,0.00,CLR,,0.00,WeatherDisplay:10.37,2013-05-20 04:42:00,
2013-05-20 00:47:00,64.4,58.8,29.97,SSW,206,6.0,6.0,82,0.00,CLR,,0.00,WeatherDisplay:10.37,2013-05-20 04:47:00,
2013-05-20 00:52:00,64.4,58.8,29.96,SSW,206,9.2,9.2,82,0.00,CLR,,0.00,WeatherDisplay:10.37,2013-05-20 04:52:00,
2013-05-20 00:57:00,64.4,58.8,29.96,SSW,205,7.0,7.0,82,0.00,CLR,,0.00,WeatherDisplay:10.37,2013-05-20 04:57:00,
2013-05-20 01:02:00,64.3,58.7,29.96,SSW,202,9.2,9.2,82,0.00,CLR,,0.00,WeatherDisplay:10.37,2013-05-20 05:02:00,
2013-05-20 01:07:00,64.3,58.7,29.96,SSW,192,8.0,8.0,82,0.00,CLR,,0.00,WeatherDisplay:10.37,2013-05-20 05:07:00,
2013-05-20 01:12:00,64.3,58.7,29.96,South,188,6.0,6.0,82,0.00,CLR,,0.00,WeatherDisplay:10.37,2013-05-20 05:12:00,
2013-05-20 01:17:00,64.3,58.7,29.95,SSW,200,8.1,8.1,82,0.00,CLR,,0.00,WeatherDisplay:10.37,2013-05-20 05:17:00,
2013-05-20 01:22:00,64.3,58.7,29.95,SSW,196,9.0,9.0,82,0.00,CLR,,0.00,WeatherDisplay:10.37,2013-05-20 05:22:00,
2013-05-20 01:27:00,64.2,58.6,29.95,SSW,196,9.2,9.2,82,0.00,CLR,,0.00,WeatherDisplay:10.37,2013-05-20 05:27:00,
2013-05-20 01:32:00,64.1,58.5,29.95,South,180,9.2,9.2,82,0.00,CLR,,0.00,WeatherDisplay:10.37,2013-05-20 05:32:00,
2013-05-20 01:37:00,64.0,58.4,29.95,South,186,5.0,5.0,82,0.00,CLR,,0.00,WeatherDisplay:10.37,2013-05-20 05:37:00,
2013-05-20 01:42:00,63.9,58.3,29.95,South,179,6.0,6.0,82,0.00,CLR,,0.00,WeatherDisplay:10.37,2013-05-20 05:42:00,
2013-05-20 01:47:00,63.8,58.5,29.95,SSW,194,7.0,7.0,83,0.00,CLR,,0.00,WeatherDisplay:10.37,2013-05-20 05:47:00,
2013-05-20 01:52:00,63.8,58.5,29.95,South,186,8.0,8.0,83,0.00,CLR,,0.00,WeatherDisplay:10.37,2013-05-20 05:52:00,
2013-05-20 01:57:00,63.8,58.5,29.95,South,184,6.0,6.0,83,0.00,CLR,,0.00,WeatherDisplay:10.37,2013-05-20 05:57:00,
2013-05-20 02:02:00,63.8,58.5,29.95,SSW,196,6.9,6.9,83,0.00,CLR,,0.00,WeatherDisplay:10.37,2013-05-20 06:02:00,
2013-05-20 02:07:00,63.7,58.4,29.95,SSW,198,8.1,8.1,83,0.00,CLR,,0.00,WeatherDisplay:10.37,2013-05-20 06:07:00,
2013-05-20 02:12:00,63.7,58.4,29.95,South,191,8.0,8.0,83,0.00,CLR,,0.00,WeatherDisplay:10.37,2013-05-20 06:12:00,
2013-05-20 02:17:00,63.7,58.4,29.95,South,184,8.0,8.0,83,0.00,CLR,,0.00,WeatherDisplay:10.37,2013-05-20 06:17:00,
2013-05-20 02:22:00,63.7,58.4,29.95,SSW,193,7.0,7.0,83,0.00,CLR,,0.00,WeatherDisplay:10.37,2013-05-20 06:22:00,
2013-05-20 02:27:00,63.7,58.4,29.95,SSW,199,8.1,8.1,83,0.00,CLR,,0.00,WeatherDisplay:10.37,2013-05-20 06:27:00,
2013-05-20 02:32:00,63.6,58.3,29.94,SSW,192,7.0,7.0,83,0.00,CLR,,0.00,WeatherDisplay:10.37,2013-05-20 06:32:00,
2013-05-20 02:37:00,63.7,58.4,29.94,South,191,8.0,8.0,83,0.00,CLR,,0.00,WeatherDisplay:10.37,2013-05-20 06:37:00,
2013-05-20 02:42:00,63.7,58.4,29.94,South,190,9.0,9.0,83,0.00,CLR,,0.00,WeatherDisplay:10.37,2013-05-20 06:42:00,
2013-05-20 02:47:00,63.7,58.4,29.94,South,186,9.2,9.2,83,0.00,CLR,,0.00,WeatherDisplay:10.37,2013-05-20 06:47:00,
2013-05-20 02:52:00,63.6,58.3,29.94,South,191,9.2,9.2,83,0.00,CLR,,0.00,WeatherDisplay:10.37,2013-05-20 06:52:00,
2013-05-20 02:57:00,63.6,58.3,29.94,SSW,211,8.0,8.0,83,0.00,CLR,,0.00,WeatherDisplay:10.37,2013-05-20 06:57:00,
2013-05-20 03:02:00,63.6,58.3,29.94,South,184,8.1,8.1,83,0.00,CLR,,0.00,WeatherDisplay:10.37,2013-05-20 07:02:00,
2013-05-20 03:07:00,63.5,58.2,29.94,SSW,194,7.0,7.0,83,0.00,CLR,,0.00,WeatherDisplay:10.37,2013-05-20 07:07:00,
2013-05-20 03:12:00,63.4,58.1,29.94,SSW,202,7.0,7.0,83,0.00,CLR,,0.00,WeatherDisplay:10.37,2013-05-20 07:12:00,
2013-05-20 03:17:00,63.3,58.0,29.93,SSW,198,7.0,7.0,83,0.00,CLR,,0.00,WeatherDisplay:10.37,2013-05-20 07:17:00,
2013-05-20 03:22:00,63.3,58.0,29.93,SW,215,9.2,9.2,83,0.00,CLR,,0.00,WeatherDisplay:10.37,2013-05-20 07:22:00,
2013-05-20 03:27:00,63.3,58.0,29.94,South,182,8.1,8.1,83,0.00,CLR,,0.00,WeatherDisplay:10.37,2013-05-20 07:27:00,
2013-05-20 03:32:00,63.3,58.0,29.94,South,186,9.2,9.2,83,0.00,CLR,,0.00,WeatherDisplay:10.37,2013-05-20 07:32:00,
2013-05-20 03:37:00,63.3,58.0,29.94,SW,215,8.0,8.0,83,0.00,CLR,,0.00,WeatherDisplay:10.37,2013-05-20 07:37:00,
2013-05-20 03:42:00,63.2,57.9,29.94,SSW,206,5.0,5.0,83,0.00,CLR,,0.00,WeatherDisplay:10.37,2013-05-20 07:42:00,
2013-05-20 03:47:00,63.1,57.9,29.94,South,191,7.0,7.0,83,0.00,CLR,,0.00,WeatherDisplay:10.37,2013-05-20 07:47:00,
2013-05-20 03:52:00,63.0,57.8,29.94,SSW,202,7.0,7.0,83,0.00,CLR,,0.00,WeatherDisplay:10.37,2013-05-20 07:52:00,
2013-05-20 03:57:00,63.0,57.8,29.95,SSW,209,7.0,7.0,83,0.00,CLR,,0.00,WeatherDisplay:10.37,2013-05-20 07:57:00,
2013-05-20 04:02:00,63.0,57.8,29.95,South,188,9.2,9.2,83,0.00,CLR,,0.00,WeatherDisplay:10.37,2013-05-20 08:02:00,
2013-05-20 04:07:00,63.3,58.0,29.95,SSW,194,9.0,9.0,83,0.00,CLR,,0.00,WeatherDisplay:10.37,2013-05-20 08:07:00,
2013-05-20 04:12:00,63.6,58.0,29.95,SSW,192,8.1,8.1,82,0.00,CLR,,0.00,WeatherDisplay:10.37,2013-05-20 08:12:00,
2013-05-20 04:17:00,63.7,58.1,29.95,South,184,8.1,8.1,82,0.00,CLR,,0.00,WeatherDisplay:10.37,2013-05-20 08:17:00,
2013-05-20 04:22:00,63.8,58.2,29.95,South,183,8.0,8.0,82,0.00,CLR,,0.00,WeatherDisplay:10.37,2013-05-20 08:22:00,
2013-05-20 04:27:00,64.0,58.4,29.95,South,180,8.1,8.1,82,0.00,CLR,,0.00,WeatherDisplay:10.37,2013-05-20 08:27:00,
2013-05-20 04:32:00,64.0,58.1,29.96,SSW,193,10.4,10.4,81,0.00,CLR,,0.00,WeatherDisplay:10.37,2013-05-20 08:32:00,
2013-05-20 04:37:00,63.9,58.0,29.95,South,183,10.4,10.4,81,0.00,CLR,,0.00,WeatherDisplay:10.37,2013-05-20 08:37:00,
2013-05-20 04:42:00,63.9,58.0,29.96,South,187,11.5,11.5,81,0.00,CLR,,0.00,WeatherDisplay:10.37,2013-05-20 08:42:00,
2013-05-20 04:47:00,63.8,57.9,29.96,SSW,199,8.1,8.1,81,0.00,CLR,,0.00,WeatherDisplay:10.37,2013-05-20 08:47:00,
2013-05-20 04:52:00,63.7,57.8,29.96,South,184,9.2,9.2,81,0.00,CLR,,0.00,WeatherDisplay:10.37,2013-05-20 08:52:00,
2013-05-20 04:57:00,63.6,57.7,29.96,SSW,199,6.0,6.0,81,0.00,CLR,,0.00,WeatherDisplay:10.37,2013-05-20 08:57:00,
2013-05-20 05:02:00,63.4,57.5,29.97,SSW,196,6.0,6.0,81,0.00,CLR,,0.00,WeatherDisplay:10.37,2013-05-20 09:02:00,
2013-05-20 05:07:00,63.2,57.6,29.97,SSW,209,7.0,7.0,82,0.00,CLR,,0.00,WeatherDisplay:10.37,2013-05-20 09:07:00,
2013-05-20 05:12:00,63.1,57.5,29.97,SW,215,6.0,6.0,82,0.00,CLR,,0.00,WeatherDisplay:10.37,2013-05-20 09:12:00,
2013-05-20 05:17:00,63.1,57.5,29.97,SSW,207,7.0,7.0,82,0.00,CLR,,0.00,WeatherDisplay:10.37,2013-05-20 09:17:00,
2013-05-20 05:22:00,63.2,57.6,29.97,SSW,209,6.0,6.0,82,0.00,CLR,,0.00,WeatherDisplay:10.37,2013-05-20 09:22:00,
2013-05-20 05:27:00,63.2,57.6,29.97,SSW,199,6.0,6.0,82,0.00,CLR,,0.00,WeatherDisplay:10.37,2013-05-20 09:27:00,
2013-05-20 05:32:00,63.1,57.5,29.97,South,188,5.0,5.0,82,0.00,CLR,,0.00,WeatherDisplay:10.37,2013-05-20 09:32:00,
2013-05-20 05:37:00,63.2,57.6,29.98,SSW,206,4.0,4.0,82,0.00,CLR,,0.00,WeatherDisplay:10.37,2013-05-20 09:37:00,
2013-05-20 05:42:00,63.2,57.6,29.98,SW,225,3.5,3.5,82,0.00,CLR,,0.00,WeatherDisplay:10.37,2013-05-20 09:42:00,
2013-05-20 05:47:00,63.1,57.5,29.98,SSW,199,5.0,5.0,82,0.00,CLR,,0.00,WeatherDisplay:10.37,2013-05-20 09:47:00,
2013-05-20 05:52:00,63.3,57.7,29.98,SSW,195,7.0,7.0,82,0.00,CLR,,0.00,WeatherDisplay:10.37,2013-05-20 09:52:00,
2013-05-20 05:57:00,63.6,58.0,29.97,South,184,5.8,5.8,82,0.00,CLR,,0.00,WeatherDisplay:10.37,2013-05-20 09:57:00,
2013-05-20 06:02:00,63.6,57.7,29.98,SSW,200,4.0,4.0,81,0.00,CLR,,0.00,WeatherDisplay:10.37,2013-05-20 10:02:00,
2013-05-20 06:07:00,63.4,57.5,29.98,South,181,1.2,0.0,81,0.00,CLR,,0.00,WeatherDisplay:10.37,2013-05-20 10:07:00,
2013-05-20 06:12:00,62.4,56.8,29.97,SE,136,3.5,3.5,82,0.00,CLR,,0.00,WeatherDisplay:10.37,2013-05-20 10:12:00,
2013-05-20 06:17:00,61.8,56.6,29.98,SE,131,2.3,2.3,83,0.00,CLR,,0.00,WeatherDisplay:10.37,2013-05-20 10:17:00,
2013-05-20 06:22:00,61.5,56.6,29.98,SSE,168,1.0,0.0,84,0.00,CLR,,0.00,WeatherDisplay:10.37,2013-05-20 10:22:00,
2013-05-20 06:27:00,61.8,56.9,29.98,South,173,3.5,3.5,84,0.00,CLR,,0.00,WeatherDisplay:10.37,2013-05-20 10:27:00,
2013-05-20 06:32:00,62.4,57.5,29.98,ESE,120,3.0,3.0,84,0.00,CLR,,0.00,WeatherDisplay:10.37,2013-05-20 10:32:00,
2013-05-20 06:37:00,62.7,57.8,29.98,South,173,3.0,3.0,84,0.00,CLR,,0.00,WeatherDisplay:10.37,2013-05-20 10:37:00,
2013-05-20 06:42:00,62.9,57.7,29.98,SE,128,5.0,5.0,83,0.00,CLR,,0.00,WeatherDisplay:10.37,2013-05-20 10:42:00,
2013-05-20 06:47:00,62.9,57.7,29.98,SE,136,3.5,3.5,83,0.00,CLR,,0.00,WeatherDisplay:10.37,2013-05-20 10:47:00,
2013-05-20 06:52:00,63.0,57.8,29.98,SE,142,4.0,4.0,83,0.00,CLR,,0.00,WeatherDisplay:10.37,2013-05-20 10:52:00,
2013-05-20 06:57:00,63.0,57.8,29.98,SSE,153,3.0,3.0,83,0.00,CLR,,0.00,WeatherDisplay:10.37,2013-05-20 10:57:00,
2013-05-20 07:02:00,63.1,57.9,29.98,SSW,200,5.0,5.0,83,0.00,CLR,,0.00,WeatherDisplay:10.37,2013-05-20 11:02:00,
2013-05-20 07:07:00,63.3,58.0,29.99,SE,140,6.9,6.9,83,0.00,CLR,,0.00,WeatherDisplay:10.37,2013-05-20 11:07:00,
2013-05-20 07:12:00,63.4,57.8,29.98,SSW,194,3.5,3.5,82,0.00,CLR,,0.00,WeatherDisplay:10.37,2013-05-20 11:12:00,
2013-05-20 07:17:00,63.6,58.0,29.98,South,172,6.0,6.0,82,0.00,CLR,,0.00,WeatherDisplay:10.37,2013-05-20 11:17:00,
2013-05-20 07:22:00,63.8,58.2,29.99,South,189,7.0,7.0,82,0.00,CLR,,0.00,WeatherDisplay:10.37,2013-05-20 11:22:00,
2013-05-20 07:27:00,64.0,58.1,29.99,South,169,3.5,3.5,81,0.00,CLR,,0.00,WeatherDisplay:10.37,2013-05-20 11:27:00,
2013-05-20 07:32:00,64.1,58.1,29.99,South,186,3.5,3.5,81,0.00,CLR,,0.00,WeatherDisplay:10.37,2013-05-20 11:32:00,
2013-05-20 07:37:00,64.3,58.3,29.99,SSE,150,3.5,3.5,81,0.00,CLR,,0.00,WeatherDisplay:10.37,2013-05-20 11:37:00,
2013-05-20 07:42:00,64.5,58.5,29.98,SSE,165,3.5,3.5,81,0.00,CLR,,0.00,WeatherDisplay:10.37,2013-05-20 11:42:00,
2013-05-20 07:47:00,64.6,58.6,29.99,SSE,155,3.5,3.5,81,0.00,CLR,,0.00,WeatherDisplay:10.37,2013-05-20 11:47:00,
2013-05-20 07:52:00,64.8,58.5,29.99,SSE,147,5.8,5.8,80,0.00,CLR,,0.00,WeatherDisplay:10.37,2013-05-20 11:52:00,
2013-05-20 07:57:00,64.8,58.5,29.99,SSW,198,7.0,7.0,80,0.00,CLR,,0.00,WeatherDisplay:10.37,2013-05-20 11:57:00,
2013-05-20 08:02:00,64.7,58.4,29.99,South,184,7.0,7.0,80,0.00,CLR,,0.00,WeatherDisplay:10.37,2013-05-20 12:02:00,
2013-05-20 08:07:00,64.7,58.7,29.98,South,188,6.0,6.0,81,0.00,CLR,,0.00,WeatherDisplay:10.37,2013-05-20 12:07:00,
2013-05-20 08:12:00,65.0,59.0,29.99,South,176,7.0,7.0,81,0.00,CLR,,0.00,WeatherDisplay:10.37,2013-05-20 12:12:00,
2013-05-20 08:17:00,65.1,58.8,29.99,SSW,205,6.9,6.9,80,0.00,CLR,,0.00,WeatherDisplay:10.37,2013-05-20 12:17:00,
2013-05-20 08:22:00,65.4,59.1,29.99,South,190,5.8,5.8,80,0.00,CLR,,0.00,WeatherDisplay:10.37,2013-05-20 12:22:00,
2013-05-20 08:27:00,65.5,59.2,29.99,SSW,195,9.2,9.2,80,0.00,CLR,,0.00,WeatherDisplay:10.37,2013-05-20 12:27:00,
2013-05-20 08:32:00,65.8,59.8,29.99,SSW,202,8.1,8.1,81,0.00,CLR,,0.00,WeatherDisplay:10.37,2013-05-20 12:32:00,
2013-05-20 08:37:00,66.0,59.7,29.99,South,184,8.1,8.1,80,0.00,CLR,,0.00,WeatherDisplay:10.37,2013-05-20 12:37:00,
2013-05-20 08:42:00,66.3,59.9,29.99,SW,230,7.0,7.0,80,0.00,CLR,,0.00,WeatherDisplay:10.37,2013-05-20 12:42:00,
2013-05-20 08:47:00,66.6,60.2,29.98,South,175,8.1,8.1,80,0.00,CLR,,0.00,WeatherDisplay:10.37,2013-05-20 12:47:00,
2013-05-20 08:52:00,66.9,60.5,29.98,South,179,8.1,8.1,80,0.00,CLR,,0.00,WeatherDisplay:10.37,2013-05-20 12:52:00,
2013-05-20 08:57:00,67.4,61.0,29.99,WSW,241,8.1,8.1,80,0.00,CLR,,0.00,WeatherDisplay:10.37,2013-05-20 12:57:00,
2013-05-20 09:02:00,67.9,61.5,29.99,SW,219,4.0,4.0,80,0.00,CLR,,0.00,WeatherDisplay:10.37,2013-05-20 13:02:00,
2013-05-20 09:07:00,68.3,61.9,29.99,SW,229,5.0,5.0,80,0.00,CLR,,0.00,WeatherDisplay:10.37,2013-05-20 13:07:00,
2013-05-20 09:12:00,68.8,61.7,29.99,SSW,202,5.0,5.0,78,0.00,CLR,,0.00,WeatherDisplay:10.37,2013-05-20 13:12:00,
2013-05-20 09:17:00,69.6,62.4,29.99,WSW,245,10.4,10.4,78,0.00,CLR,,0.00,WeatherDisplay:10.37,2013-05-20 13:17:00,
2013-05-20 09:22:00,69.6,62.1,29.99,SW,228,10.4,10.4,77,0.00,CLR,,0.00,WeatherDisplay:10.37,2013-05-20 13:22:00,
2013-05-20 09:27:00,69.6,62.1,29.99,WSW,257,11.5,11.5,77,0.00,CLR,,0.00,WeatherDisplay:10.37,2013-05-20 13:27:00,
2013-05-20 09:32:00,69.7,62.5,29.99,SW,234,9.2,9.2,78,0.00,CLR,,0.00,WeatherDisplay:10.37,2013-05-20 13:32:00,
2013-05-20 09:37:00,69.7,62.5,29.99,WSW,246,8.1,8.1,78,0.00,CLR,,0.00,WeatherDisplay:10.37,2013-05-20 13:37:00,
2013-05-20 09:42:00,69.9,62.4,29.99,SW,232,10.4,10.4,77,0.00,CLR,,0.00,WeatherDisplay:10.37,2013-05-20 13:42:00,
2013-05-20 09:47:00,69.8,62.3,29.99,WSW,237,9.0,9.0,77,0.00,CLR,,0.00,WeatherDisplay:10.37,2013-05-20 13:47:00,
2013-05-20 09:52:00,70.0,62.5,29.99,SSW,210,9.2,9.2,77,0.00,CLR,,0.00,WeatherDisplay:10.37,2013-05-20 13:52:00,
2013-05-20 09:57:00,70.3,63.1,29.99,WSW,237,7.0,7.0,78,0.00,CLR,,0.00,WeatherDisplay:10.37,2013-05-20 13:57:00,
2013-05-20 10:02:00,70.6,63.0,29.99,SW,222,7.0,7.0,77,0.00,CLR,,0.00,WeatherDisplay:10.37,2013-05-20 14:02:00,
2013-05-20 10:07:00,70.4,62.8,29.99,SW,232,11.0,11.0,77,0.00,CLR,,0.00,WeatherDisplay:10.37,2013-05-20 14:07:00,
2013-05-20 10:12:00,69.9,62.4,29.99,WSW,242,9.2,9.2,77,0.00,CLR,,0.00,WeatherDisplay:10.37,2013-05-20 14:12:00,
2013-05-20 10:17:00,69.8,62.6,29.99,SW,236,7.0,7.0,78,0.00,CLR,,0.00,WeatherDisplay:10.37,2013-05-20 14:17:00,
2013-05-20 10:22:00,70.2,63.0,29.99,SSW,213,5.8,5.8,78,0.00,CLR,,0.00,WeatherDisplay:10.37,2013-05-20 14:22:00,
2013-05-20 10:27:00,70.7,63.9,29.99,WSW,242,5.0,5.0,79,0.00,CLR,,0.00,WeatherDisplay:10.37,2013-05-20 14:27:00,
2013-05-20 10:32:00,71.0,63.4,29.99,SW,225,7.0,7.0,77,0.00,CLR,,0.00,WeatherDisplay:10.37,2013-05-20 14:32:00,
2013-05-20 10:37:00,71.3,63.7,29.99,SW,223,8.1,8.1,77,0.00,CLR,,0.00,WeatherDisplay:10.37,2013-05-20 14:37:00,
2013-05-20 10:42:00,71.3,63.3,29.99,SW,234,8.1,8.1,76,0.00,CLR,,0.00,WeatherDisplay:10.37,2013-05-20 14:42:00,
2013-05-20 10:47:00,71.5,63.5,29.99,SSW,194,7.0,7.0,76,0.00,CLR,,0.00,WeatherDisplay:10.37,2013-05-20 14:47:00,
2013-05-20 10:52:00,72.1,64.5,29.99,SW,219,6.0,6.0,77,0.00,CLR,,0.00,WeatherDisplay:10.37,2013-05-20 14:52:00,
2013-05-20 10:57:00,72.7,64.7,29.99,SSW,204,6.0,6.0,76,0.00,CLR,,0.00,WeatherDisplay:10.37,2013-05-20 14:57:00,
2013-05-20 11:02:00,73.1,64.3,29.98,SW,227,10.4,10.4,74,0.00,CLR,,0.00,WeatherDisplay:10.37,2013-05-20 15:02:00,
2013-05-20 11:07:00,74.0,65.2,29.98,SW,229,6.0,6.0,74,0.00,CLR,,0.00,WeatherDisplay:10.37,2013-05-20 15:07:00,
2013-05-20 11:12:00,74.2,64.6,29.98,SSW,193,11.5,11.5,72,0.00,CLR,,0.00,WeatherDisplay:10.37,2013-05-20 15:12:00,
2013-05-20 11:17:00,74.7,65.1,29.98,SSW,200,12.0,12.0,72,0.00,CLR,,0.00,WeatherDisplay:10.37,2013-05-20 15:17:00,
2013-05-20 11:22:00,75.0,65.8,29.98,SSW,198,9.0,9.0,73,0.00,CLR,,0.00,WeatherDisplay:10.37,2013-05-20 15:22:00,
2013-05-20 11:27:00,75.3,65.6,29.97,SW,218,9.2,9.2,72,0.00,CLR,,0.00,WeatherDisplay:10.37,2013-05-20 15:27:00,
2013-05-20 11:32:00,75.2,65.9,29.97,West,273,10.0,10.0,73,0.00,CLR,,0.00,WeatherDisplay:10.37,2013-05-20 15:32:00,
2013-05-20 11:37:00,74.9,64.9,29.97,South,188,9.2,9.2,71,0.00,CLR,,0.00,WeatherDisplay:10.37,2013-05-20 15:37:00,
2013-05-20 11:42:00,74.4,64.8,29.97,WSW,248,6.0,6.0,72,0.00,CLR,,0.00,WeatherDisplay:10.37,2013-05-20 15:42:00,
2013-05-20 11:47:00,75.8,66.1,29.97,South,187,10.4,10.4,72,0.00,CLR,,0.00,WeatherDisplay:10.37,2013-05-20 15:47:00,
2013-05-20 11:52:00,76.3,65.8,29.97,SW,217,9.2,9.2,70,0.00,CLR,,0.00,WeatherDisplay:10.37,2013-05-20 15:52:00,
2013-05-20 11:57:00,76.7,66.2,29.97,SW,223,11.5,11.5,70,0.00,CLR,,0.00,WeatherDisplay:10.37,2013-05-20 15:57:00,
2013-05-20 12:02:00,76.2,65.3,29.97,SW,225,9.2,9.2,69,0.00,CLR,,0.00,WeatherDisplay:10.37,2013-05-20 16:02:00,
2013-05-20 12:07:00,76.2,66.5,29.97,West,259,9.2,9.2,72,0.00,CLR,,0.00,WeatherDisplay:10.37,2013-05-20 16:07:00,
2013-05-20 12:12:00,75.8,66.1,29.98,SW,227,10.4,10.4,72,0.00,CLR,,0.00,WeatherDisplay:10.37,2013-05-20 16:12:00,
2013-05-20 12:17:00,76.0,66.3,29.98,SW,229,13.0,13.0,72,0.00,CLR,,0.00,WeatherDisplay:10.37,2013-05-20 16:17:00,
2013-05-20 12:22:00,76.8,66.3,29.98,SW,226,10.0,10.0,70,0.00,CLR,,0.00,WeatherDisplay:10.37,2013-05-20 16:22:00,
2013-05-20 12:27:00,77.6,66.2,29.98,SW,215,8.1,8.1,68,0.00,CLR,,0.00,WeatherDisplay:10.37,2013-05-20 16:27:00,
2013-05-20 12:32:00,77.3,65.9,29.98,SW,236,12.0,12.0,68,0.00,CLR,,0.00,WeatherDisplay:10.37,2013-05-20 16:32:00,
2013-05-20 12:37:00,77.8,66.8,29.97,SW,217,10.0,10.0,69,0.00,CLR,,0.00,WeatherDisplay:10.37,2013-05-20 16:37:00,
2013-05-20 12:42:00,78.3,66.4,29.97,WSW,245,10.4,10.4,67,0.00,CLR,,0.00,WeatherDisplay:10.37,2013-05-20 16:42:00,
2013-05-20 12:47:00,78.4,66.1,29.97,SW,217,12.0,12.0,66,0.00,CLR,,0.00,WeatherDisplay:10.37,2013-05-20 16:47:00,
2013-05-20 12:52:00,78.7,66.8,29.97,SW,236,8.1,8.1,67,0.00,CLR,,0.00,WeatherDisplay:10.37,2013-05-20 16:52:00,
2013-05-20 12:57:00,79.1,66.8,29.97,SSE,165,10.4,10.4,66,0.00,CLR,,0.00,WeatherDisplay:10.37,2013-05-20 16:57:00,
2013-05-20 13:02:00,79.2,66.4,29.97,WSW,253,8.1,8.1,65,0.00,CLR,,0.00,WeatherDisplay:10.37,2013-05-20 17:02:00,
2013-05-20 13:07:00,78.7,65.5,29.97,SW,225,8.1,8.1,64,0.00,CLR,,0.00,WeatherDisplay:10.37,2013-05-20 17:07:00,
2013-05-20 13:12:00,79.7,67.3,29.97,SSW,213,9.2,9.2,66,0.00,CLR,,0.00,WeatherDisplay:10.37,2013-05-20 17:12:00,
2013-05-20 13:18:00,79.6,67.2,29.97,South,186,9.0,9.0,66,0.00,CLR,,0.00,WeatherDisplay:10.37,2013-05-20 17:18:00,
2013-05-20 13:23:00,79.4,67.0,29.96,SSW,206,11.5,11.5,66,0.00,CLR,,0.00,WeatherDisplay:10.37,2013-05-20 17:23:00,
2013-05-20 13:28:00,79.4,65.7,29.96,WSW,257,9.0,9.0,63,0.00,CLR,,0.00,WeatherDisplay:10.37,2013-05-20 17:28:00,
2013-05-20 13:33:00,80.0,66.3,29.96,SW,233,9.2,9.2,63,0.00,CLR,,0.00,WeatherDisplay:10.37,2013-05-20 17:33:00,
2013-05-20 13:38:00,80.2,66.0,29.96,SSW,207,8.1,8.1,62,0.00,CLR,,0.00,WeatherDisplay:10.37,2013-05-20 17:38:00,
2013-05-20 13:43:00,79.2,65.5,29.96,West,268,10.4,10.4,63,0.00,CLR,,0.00,WeatherDisplay:10.37,2013-05-20 17:43:00,
2013-05-20 13:48:00,78.2,65.5,29.96,West,259,9.2,9.2,65,0.00,CLR,,0.00,WeatherDisplay:10.37,2013-05-20 17:48:00,
2013-05-20 13:53:00,77.8,65.5,29.95,WSW,245,8.0,8.0,66,0.00,CLR,,0.00,WeatherDisplay:10.37,2013-05-20 17:53:00,
2013-05-20 13:58:00,77.8,66.0,29.95,WSW,254,7.0,7.0,67,0.00,CLR,,0.00,WeatherDisplay:10.37,2013-05-20 17:58:00,
2013-05-20 14:03:00,79.4,67.0,29.95,WSW,245,8.1,8.1,66,0.00,CLR,,0.00,WeatherDisplay:10.37,2013-05-20 18:03:00,
2013-05-20 14:08:00,80.1,67.3,29.95,West,265,9.2,9.2,65,0.00,CLR,,0.00,WeatherDisplay:10.37,2013-05-20 18:08:00,
2013-05-20 14:13:00,80.4,68.0,29.95,West,263,10.0,10.0,66,0.00,CLR,,0.00,WeatherDisplay:10.37,2013-05-20 18:13:00,
2013-05-20 14:18:00,81.0,67.7,29.95,WSW,242,8.1,8.1,64,0.00,CLR,,0.00,WeatherDisplay:10.37,2013-05-20 18:18:00,
2013-05-20 14:23:00,80.9,65.2,29.95,West,281,4.0,4.0,59,0.00,CLR,,0.00,WeatherDisplay:10.37,2013-05-20 18:23:00,
2013-05-20 14:28:00,80.0,65.8,29.95,SW,226,10.4,10.4,62,0.00,CLR,,0.00,WeatherDisplay:10.37,2013-05-20 18:28:00,
2013-05-20 14:33:00,79.6,65.9,29.95,SW,233,8.1,8.1,63,0.00,CLR,,0.00,WeatherDisplay:10.37,2013-05-20 18:33:00,
2013-05-20 14:38:00,79.6,66.3,29.95,West,259,9.2,9.2,64,0.00,CLR,,0.00,WeatherDisplay:10.37,2013-05-20 18:38:00,
2013-05-20 14:43:00,79.5,67.1,29.94,SW,232,6.0,6.0,66,0.00,CLR,,0.00,WeatherDisplay:10.37,2013-05-20 18:43:00,
2013-05-20 14:48:00,80.8,67.9,29.94,WSW,238,9.2,9.2,65,0.00,CLR,,0.00,WeatherDisplay:10.37,2013-05-20 18:48:00,
2013-05-20 14:53:00,81.1,66.8,29.94,West,273,5.0,5.0,62,0.00,CLR,,0.00,WeatherDisplay:10.37,2013-05-20 18:53:00,
2013-05-20 14:58:00,81.2,67.4,29.94,West,264,9.2,9.2,63,0.00,CLR,,0.00,WeatherDisplay:10.37,2013-05-20 18:58:00,
2013-05-20 15:03:00,81.1,66.8,29.94,SSW,200,11.0,11.0,62,0.00,CLR,,0.00,WeatherDisplay:10.37,2013-05-20 19:03:00,
2013-05-20 15:08:00,80.8,66.1,29.94,South,187,11.5,11.5,61,0.00,CLR,,0.00,WeatherDisplay:10.37,2013-05-20 19:08:00,
2013-05-20 15:13:00,81.3,67.5,29.94,SW,236,7.0,7.0,63,0.00,CLR,,0.00,WeatherDisplay:10.37,2013-05-20 19:13:00,
2013-05-20 15:18:00,82.3,66.0,29.94,South,172,9.2,9.2,58,0.00,CLR,,0.00,WeatherDisplay:10.37,2013-05-20 19:18:00,
2013-05-20 15:23:00,82.1,65.9,29.93,WSW,252,5.8,5.8,58,0.00,CLR,,0.00,WeatherDisplay:10.37,2013-05-20 19:23:00,
2013-05-20 15:28:00,82.6,67.8,29.93,West,260,11.5,11.5,61,0.00,CLR,,0.00,WeatherDisplay:10.37,2013-05-20 19:28:00,
2013-05-20 15:33:00,82.7,66.9,29.92,West,268,6.0,6.0,59,0.00,CLR,,0.00,WeatherDisplay:10.37,2013-05-20 19:33:00,
2013-05-20 15:38:00,83.1,67.8,29.92,SW,236,7.0,7.0,60,0.00,CLR,,0.00,WeatherDisplay:10.37,2013-05-20 19:38:00,
2013-05-20 15:43:00,83.0,67.2,29.91,SW,232,11.0,11.0,59,0.00,CLR,,0.00,WeatherDisplay:10.37,2013-05-20 19:43:00,
2013-05-20 15:48:00,82.7,67.4,29.91,West,263,8.0,8.0,60,0.00,CLR,,0.00,WeatherDisplay:10.37,2013-05-20 19:48:00,
2013-05-20 15:53:00,83.3,67.5,29.92,SW,235,7.0,7.0,59,0.00,CLR,,0.00,WeatherDisplay:10.37,2013-05-20 19:53:00,
2013-05-20 15:58:00,83.3,67.5,29.91,SW,222,8.0,8.0,59,0.00,CLR,,0.00,WeatherDisplay:10.37,2013-05-20 19:58:00,
2013-05-20 16:03:00,83.5,66.2,29.91,SW,230,10.4,10.4,56,0.00,CLR,,0.00,WeatherDisplay:10.37,2013-05-20 20:03:00,
2013-05-20 16:08:00,83.0,65.7,29.91,WSW,239,4.0,4.0,56,0.00,CLR,,0.00,WeatherDisplay:10.37,2013-05-20 20:08:00,
2013-05-20 16:13:00,83.2,67.4,29.91,WSW,244,11.5,11.5,59,0.00,CLR,,0.00,WeatherDisplay:10.37,2013-05-20 20:13:00,
2013-05-20 16:18:00,81.5,65.8,29.91,WSW,252,10.0,10.0,59,0.00,CLR,,0.00,WeatherDisplay:10.37,2013-05-20 20:18:00,
2013-05-20 16:23:00,81.0,64.8,29.90,SW,217,6.0,6.0,58,0.00,CLR,,0.00,WeatherDisplay:10.37,2013-05-20 20:23:00,
2013-05-20 16:28:00,81.7,66.0,29.90,South,183,4.0,4.0,59,0.00,CLR,,0.00,WeatherDisplay:10.37,2013-05-20 20:28:00,
2013-05-20 16:33:00,83.2,66.9,29.89,West,259,11.5,11.5,58,0.00,CLR,,0.00,WeatherDisplay:10.37,2013-05-20 20:33:00,
2013-05-20 16:38:00,82.5,65.2,29.89,WSW,240,5.8,5.8,56,0.00,CLR,,0.00,WeatherDisplay:10.37,2013-05-20 20:38:00,
2013-05-20 16:43:00,82.1,65.4,29.89,West,263,5.8,5.8,57,0.00,CLR,,0.00,WeatherDisplay:10.37,2013-05-20 20:43:00,
2013-05-20 16:48:00,82.8,67.0,29.89,West,259,10.4,10.4,59,0.00,CLR,,0.00,WeatherDisplay:10.37,2013-05-20 20:48:00,
2013-05-20 16:53:00,83.1,65.8,29.89,SSW,207,9.2,9.2,56,0.00,CLR,,0.00,WeatherDisplay:10.37,2013-05-20 20:53:00,
2013-05-20 16:58:00,83.1,66.8,29.89,SSW,209,10.4,10.4,58,0.00,CLR,,0.00,WeatherDisplay:10.37,2013-05-20 20:58:00,
2013-05-20 17:03:00,83.0,66.2,29.88,SSW,206,6.0,6.0,57,0.00,CLR,,0.00,WeatherDisplay:10.37,2013-05-20 21:03:00,
2013-05-20 17:08:00,83.1,66.3,29.88,SSW,199,7.0,7.0,57,0.00,CLR,,0.00,WeatherDisplay:10.37,2013-05-20 21:08:00,
2013-05-20 17:13:00,82.7,66.4,29.88,SSW,202,6.0,6.0,58,0.00,CLR,,0.00,WeatherDisplay:10.37,2013-05-20 21:13:00,
2013-05-20 17:18:00,82.9,66.1,29.88,SW,229,5.0,5.0,57,0.00,CLR,,0.00,WeatherDisplay:10.37,2013-05-20 21:18:00,
2013-05-20 17:23:00,83.0,66.2,29.89,West,267,7.0,7.0,57,0.00,CLR,,0.00,WeatherDisplay:10.37,2013-05-20 21:23:00,
2013-05-20 17:28:00,82.8,66.0,29.89,SW,217,7.0,7.0,57,0.00,CLR,,0.00,WeatherDisplay:10.37,2013-05-20 21:28:00,
2013-05-20 17:33:00,82.8,65.5,29.89,West,268,7.0,7.0,56,0.00,CLR,,0.00,WeatherDisplay:10.37,2013-05-20 21:33:00,
2013-05-20 17:38:00,82.3,66.0,29.89,West,261,9.2,9.2,58,0.00,CLR,,0.00,WeatherDisplay:10.37,2013-05-20 21:38:00,
2013-05-20 17:43:00,82.4,65.6,29.89,SSW,195,7.0,7.0,57,0.00,CLR,,0.00,WeatherDisplay:10.37,2013-05-20 21:43:00,
2013-05-20 17:48:00,82.6,64.8,29.88,SW,214,6.9,6.9,55,0.00,CLR,,0.00,WeatherDisplay:10.37,2013-05-20 21:48:00,
2013-05-20 17:53:00,82.6,65.8,29.89,SSW,202,7.0,7.0,57,0.00,CLR,,0.00,WeatherDisplay:10.37,2013-05-20 21:53:00,
2013-05-20 17:58:00,82.6,66.3,29.88,West,262,3.5,3.5,58,0.00,CLR,,0.00,WeatherDisplay:10.37,2013-05-20 21:58:00,
2013-05-20 18:03:00,82.4,66.1,29.88,West,259,6.0,6.0,58,0.00,CLR,,0.00,WeatherDisplay:10.37,2013-05-20 22:03:00,
2013-05-20 18:08:00,82.1,66.4,29.88,WSW,257,8.1,8.1,59,0.00,CLR,,0.00,WeatherDisplay:10.37,2013-05-20 22:08:00,
2013-05-20 18:13:00,81.9,65.7,29.88,WSW,250,6.0,6.0,58,0.00,CLR,,0.00,WeatherDisplay:10.37,2013-05-20 22:13:00,
2013-05-20 18:18:00,82.0,65.8,29.88,West,264,9.2,9.2,58,0.00,CLR,,0.00,WeatherDisplay:10.37,2013-05-20 22:18:00,
2013-05-20 18:23:00,81.9,66.2,29.88,WSW,243,7.0,7.0,59,0.00,CLR,,0.00,WeatherDisplay:10.37,2013-05-20 22:23:00,
2013-05-20 18:28:00,82.1,65.9,29.88,SW,220,10.4,10.4,58,0.00,CLR,,0.00,WeatherDisplay:10.37,2013-05-20 22:28:00,
2013-05-20 18:33:00,82.1,65.9,29.88,WSW,240,9.2,9.2,58,0.00,CLR,,0.00,WeatherDisplay:10.37,2013-05-20 22:33:00,
2013-05-20 18:38:00,81.6,65.4,29.88,SW,229,6.9,6.9,58,0.00,CLR,,0.00,WeatherDisplay:10.37,2013-05-20 22:38:00,
2013-05-20 18:43:00,81.9,65.2,29.87,SW,217,5.0,5.0,57,0.00,CLR,,0.00,WeatherDisplay:10.37,2013-05-20 22:43:00,
2013-05-20 18:48:00,81.5,64.8,29.87,SSW,209,11.5,11.5,57,0.00,CLR,,0.00,WeatherDisplay:10.37,2013-05-20 22:48:00,
2013-05-20 18:53:00,81.0,64.8,29.87,WSW,243,7.0,7.0,58,0.00,CLR,,0.00,WeatherDisplay:10.37,2013-05-20 22:53:00,
2013-05-20 18:58:00,81.0,65.3,29.87,SW,226,7.0,7.0,59,0.00,CLR,,0.00,WeatherDisplay:10.37,2013-05-20 22:58:00,
2013-05-20 19:03:00,81.0,65.3,29.87,SW,217,12.0,12.0,59,0.00,CLR,,0.00,WeatherDisplay:10.37,2013-05-20 23:03:00,
2013-05-20 19:08:00,80.9,64.7,29.87,SW,236,8.1,8.1,58,0.00,CLR,,0.00,WeatherDisplay:10.37,2013-05-20 23:08:00,
2013-05-20 19:13:00,80.3,64.7,29.87,WSW,250,9.2,9.2,59,0.00,CLR,,0.00,WeatherDisplay:10.37,2013-05-20 23:13:00,
2013-05-20 19:18:00,80.0,64.9,29.87,SW,223,6.0,6.0,60,0.00,CLR,,0.00,WeatherDisplay:10.37,2013-05-20 23:18:00,
2013-05-20 19:23:00,80.0,64.9,29.87,WSW,241,5.0,5.0,60,0.00,CLR,,0.00,WeatherDisplay:10.37,2013-05-20 23:23:00,
2013-05-20 19:28:00,80.1,65.0,29.87,SW,235,4.0,4.0,60,0.00,CLR,,0.00,WeatherDisplay:10.37,2013-05-20 23:28:00,
2013-05-20 19:33:00,80.0,64.9,29.87,SSW,211,5.0,5.0,60,0.00,CLR,,0.00,WeatherDisplay:10.37,2013-05-20 23:33:00,
2013-05-20 19:38:00,80.0,64.9,29.87,SW,217,4.0,4.0,60,0.00,CLR,,0.00,WeatherDisplay:10.37,2013-05-20 23:38:00,
2013-05-20 19:43:00,79.8,65.2,29.87,WSW,250,6.0,6.0,61,0.00,CLR,,0.00,WeatherDisplay:10.37,2013-05-20 23:43:00,
2013-05-20 19:48:00,79.7,64.6,29.87,SW,215,6.0,6.0,60,0.00,CLR,,0.00,WeatherDisplay:10.37,2013-05-20 23:48:00,
2013-05-20 19:53:00,79.4,64.8,29.87,SW,233,5.0,5.0,61,0.00,CLR,,0.00,WeatherDisplay:10.37,2013-05-20 23:53:00,
2013-05-20 19:58:00,78.8,64.7,29.87,SW,236,4.0,4.0,62,0.00,CLR,,0.00,WeatherDisplay:10.37,2013-05-20 23:58:00,
2013-05-20 20:03:00,78.4,64.8,29.87,SW,226,4.6,4.6,63,0.00,CLR,,0.00,WeatherDisplay:10.37,2013-05-21 00:03:00,
2013-05-20 20:08:00,78.3,64.7,29.87,SW,229,3.5,3.5,63,0.00,CLR,,0.00,WeatherDisplay:10.37,2013-05-21 00:08:00,
2013-05-20 20:13:00,78.3,64.7,29.87,SSW,208,5.0,5.0,63,0.00,CLR,,0.00,WeatherDisplay:10.37,2013-05-21 00:13:00,
2013-05-20 20:18:00,78.0,64.4,29.88,SW,235,4.0,4.0,63,0.00,CLR,,0.00,WeatherDisplay:10.37,2013-05-21 00:18:00,
2013-05-20 20:23:00,77.6,64.5,29.87,SW,234,3.5,3.5,64,0.00,CLR,,0.00,WeatherDisplay:10.37,2013-05-21 00:23:00,
2013-05-20 20:28:00,77.3,64.2,29.87,SSW,213,4.0,4.0,64,0.00,CLR,,0.00,WeatherDisplay:10.37,2013-05-21 00:28:00,
2013-05-20 20:33:00,77.4,64.3,29.87,SW,230,4.0,4.0,64,0.00,CLR,,0.00,WeatherDisplay:10.37,2013-05-21 00:33:00,
2013-05-20 20:38:00,77.3,64.2,29.87,SSW,210,5.0,5.0,64,0.00,CLR,,0.00,WeatherDisplay:10.37,2013-05-21 00:38:00,
2013-05-20 20:43:00,77.1,64.0,29.87,SSW,207,5.0,5.0,64,0.00,CLR,,0.00,WeatherDisplay:10.37,2013-05-21 00:43:00,
2013-05-20 20:48:00,76.9,64.2,29.86,SSW,210,7.0,7.0,65,0.00,CLR,,0.00,WeatherDisplay:10.37,2013-05-21 00:48:00,
2013-05-20 20:53:00,76.8,64.1,29.86,SW,229,3.5,3.5,65,0.00,CLR,,0.00,WeatherDisplay:10.37,2013-05-21 00:53:00,
2013-05-20 20:58:00,76.6,64.0,29.87,WSW,253,4.0,4.0,65,0.00,CLR,,0.00,WeatherDisplay:10.37,2013-05-21 00:58:00,
2013-05-20 21:03:00,76.3,64.1,29.88,SW,235,5.0,5.0,66,0.00,CLR,,0.00,WeatherDisplay:10.37,2013-05-21 01:03:00,
2013-05-20 21:08:00,75.7,64.0,29.88,WSW,242,4.6,4.6,67,0.00,CLR,,0.00,WeatherDisplay:10.37,2013-05-21 01:08:00,
2013-05-20 21:13:00,75.3,64.0,29.89,WSW,243,4.0,4.0,68,0.00,CLR,,0.00,WeatherDisplay:10.37,2013-05-21 01:13:00,
2013-05-20 21:18:00,74.7,63.9,29.89,WSW,253,4.6,4.6,69,0.00,CLR,,0.00,WeatherDisplay:10.37,2013-05-21 01:18:00,
2013-05-20 21:23:00,74.3,63.9,29.89,WSW,253,7.0,7.0,70,0.00,CLR,,0.00,WeatherDisplay:10.37,2013-05-21 01:23:00,
2013-05-20 21:28:00,74.4,64.0,29.89,SW,230,6.0,6.0,70,0.00,CLR,,0.00,WeatherDisplay:10.37,2013-05-21 01:28:00,
2013-05-20 21:33:00,74.6,64.2,29.90,WSW,245,7.0,7.0,70,0.00,CLR,,0.00,WeatherDisplay:10.37,2013-05-21 01:33:00,
2013-05-20 21:38:00,74.5,64.5,29.90,WSW,257,8.0,8.0,71,0.00,CLR,,0.00,WeatherDisplay:10.37,2013-05-21 01:38:00,
2013-05-20 21:43:00,74.5,64.5,29.90,SW,232,8.1,8.1,71,0.00,CLR,,0.00,WeatherDisplay:10.37,2013-05-21 01:43:00,
2013-05-20 21:48:00,74.5,64.5,29.90,WSW,256,7.0,7.0,71,0.00,CLR,,0.00,WeatherDisplay:10.37,2013-05-21 01:48:00,
2013-05-20 21:53:00,74.4,64.4,29.90,WSW,255,5.8,5.8,71,0.00,CLR,,0.00,WeatherDisplay:10.37,2013-05-21 01:53:00,
2013-05-20 21:58:00,74.2,64.2,29.90,SW,227,6.0,6.0,71,0.00,CLR,,0.00,WeatherDisplay:10.37,2013-05-21 01:58:00,
2013-05-20 22:03:00,74.1,64.1,29.90,WSW,240,7.0,7.0,71,0.00,CLR,,0.00,WeatherDisplay:10.37,2013-05-21 02:03:00,
2013-05-20 22:08:00,73.9,64.3,29.90,SW,236,6.0,6.0,72,0.00,CLR,,0.00,WeatherDisplay:10.37,2013-05-21 02:08:00,
2013-05-20 22:13:00,73.5,63.9,29.91,SW,229,7.0,7.0,72,0.00,CLR,,0.00,WeatherDisplay:10.37,2013-05-21 02:13:00,
2013-05-20 22:18:00,73.4,64.2,29.91,SW,223,7.0,7.0,73,0.00,CLR,,0.00,WeatherDisplay:10.37,2013-05-21 02:18:00,
2013-05-20 22:23:00,73.5,64.3,29.91,SW,227,5.0,5.0,73,0.00,CLR,,0.00,WeatherDisplay:10.37,2013-05-21 02:23:00,
2013-05-20 22:28:00,73.4,64.2,29.90,SW,222,5.0,5.0,73,0.00,CLR,,0.00,WeatherDisplay:10.37,2013-05-21 02:28:00,
2013-05-20 22:33:00,73.2,64.0,29.91,SW,229,6.0,6.0,73,0.00,CLR,,0.00,WeatherDisplay:10.37,2013-05-21 02:33:00,
2013-05-20 22:38:00,73.0,64.2,29.90,SW,230,6.0,6.0,74,0.00,CLR,,0.00,WeatherDisplay:10.37,2013-05-21 02:38:00,
2013-05-20 22:43:00,72.7,63.9,29.90,SW,221,4.6,4.6,74,0.00,CLR,,0.00,WeatherDisplay:10.37,2013-05-21 02:43:00,
2013-05-20 22:48:00,72.6,64.2,29.90,SW,236,4.6,4.6,75,0.00,CLR,,0.00,WeatherDisplay:10.37,2013-05-21 02:48:00,
2013-05-20 22:53:00,72.4,64.0,29.90,WSW,244,5.0,5.0,75,0.00,CLR,,0.00,WeatherDisplay:10.37,2013-05-21 02:53:00,
2013-05-20 22:58:00,72.1,63.7,29.91,WSW,252,5.8,5.8,75,0.00,CLR,,0.00,WeatherDisplay:10.37,2013-05-21 02:58:00,
2013-05-20 23:03:00,72.0,64.0,29.91,SW,232,6.0,6.0,76,0.00,CLR,,0.00,WeatherDisplay:10.37,2013-05-21 03:03:00,
2013-05-20 23:08:00,71.9,63.9,29.91,SW,234,5.0,5.0,76,0.00,CLR,,0.00,WeatherDisplay:10.37,2013-05-21 03:08:00,
2013-05-20 23:13:00,71.8,63.8,29.91,SW,234,5.8,5.8,76,0.00,CLR,,0.00,WeatherDisplay:10.37,2013-05-21 03:13:00,
2013-05-20 23:18:00,71.7,64.1,29.91,SW,219,5.0,5.0,77,0.00,CLR,,0.00,WeatherDisplay:10.37,2013-05-21 03:18:00,
2013-05-20 23:23:00,71.6,64.0,29.91,SW,225,6.0,6.0,77,0.00,CLR,,0.00,WeatherDisplay:10.37,2013-05-21 03:23:00,
2013-05-20 23:28:00,71.7,64.1,29.91,SW,235,6.0,6.0,77,0.00,CLR,,0.00,WeatherDisplay:10.37,2013-05-21 03:28:00,
2013-05-20 23:33:00,71.7,64.1,29.91,SW,223,6.0,6.0,77,0.00,CLR,,0.00,WeatherDisplay:10.37,2013-05-21 03:33:00,
2013-05-20 23:38:00,71.7,64.1,29.91,SW,219,5.0,5.0,77,0.00,CLR,,0.00,WeatherDisplay:10.37,2013-05-21 03:38:00,
2013-05-20 23:43:00,71.6,64.4,29.90,SW,233,5.0,5.0,78,0.00,CLR,,0.00,WeatherDisplay:10.37,2013-05-21 03:43:00,
2013-05-20 23:48:00,71.6,64.4,29.90,SSW,212,7.0,7.0,78,0.00,CLR,,0.00,WeatherDisplay:10.37,2013-05-21 03:48:00,
2013-05-20 23:53:00,71.6,64.4,29.90,SW,227,6.0,6.0,78,0.00,CLR,,0.00,WeatherDisplay:10.37,2013-05-21 03:53:00,
2013-05-20 23:58:00,71.5,64.3,29.90,SW,236,5.0,5.0,78,0.00,CLR,,0.00,WeatherDisplay:10.37,2013-05-21 03:58:00,